User: anonymous   Login
Location: Albany
(35.0000°S, 118.0000°E)
Time: 06:26:34
(UTC-04:00)
Language:

Radarsat Rocket - Orbit

View from above orbital plane
View from above orbital plane
View from above satellite
View from above satellite

Ground track
Ground track

The orbit data is extracted from the following two-line orbital elements,

1 23711U 95059B   17147.96879976 -.00000027 +00000-0 +35592-4 0  9991
2 23711 100.5599 138.0338 0368107 004.5536 049.9932 13.12694400032965
Epoch (UTC): 27 May 2017 23:15:04
Eccentricity: 0.0368107
inclination: 100.5599°
perigee height: 933 km
apogee height: 1492 km
right ascension of ascending node: 138.0338°
argument of perigee: 4.5536°
revolutions per day: 13.12694400
mean anomaly at epoch: 49.9932°
orbit number at epoch: 3296

The dashed part of the orbit path shows where the satellite is in the earth's shadow,  

DLR